Probability
0 0 0 0 0 0 0 0 0 1 2 3 4 3 1 1 2 6 9 10 10 9 11 13 15 15 14 13 12 11 11 13 12 11 10 10 10 8 8 7 6 4 3 3
0 0 0 0 1 1 0 0 1 3 4 5 5 3 1 0 2 7 10 11 11 10 12 15 16 16 14 13 11 9 10 10 10 9 9 10 10 9 9 8 6 4 3 3
0 0 0 1 2 2 1 1 2 4 6 6 5 4 2 2 5 8 11 13 13 12 13 15 15 15 13 12 11 9 8 7 7 8 8 9 10 10 9 8 7 5 4 3
0 0 0 1 2 2 2 1 2 4 5 4 4 3 3 5 8 11 13 14 14 13 13 13 12 11 10 10 11 11 9 8 8 9 9 8 9 9 8 8 8 6 5 4
0 0 0 1 2 1 1 1 2 3 3 2 2 2 3 4 6 9 11 14 14 14 13 11 8 8 9 10 11 11 11 12 12 11 10 10 9 8 7 7 7 7 6 5
0 0 0 1 1 0 0 1 1 1 1 1 1 1 1 1 2 4 7 11 12 13 12 10 6 6 8 9 9 9 11 12 13 12 11 9 9 8 7 7 7 7 7 6
0 0 0 0 0 0 0 0 0 0 0 0 1 1 1 1 1 2 5 8 10 11 10 8 5 4 6 7 7 8 7 8 9 9 8 9 9 9 8 8 8 7 6 6
0 0 0 0 1 0 0 0 0 0 0 0 1 2 3 4 4 5 6 8 9 9 9 6 3 2 4 5 5 5 4 4 4 5 6 7 8 9 9 9 8 7 6 6
1 1 1 0 0 0 0 0 0 0 0 2 4 6 6 6 7 7 8 10 10 10 8 5 2 1 2 3 4 3 2 1 2 3 4 6 7 7 8 8 8 7 6 6
2 2 2 1 0 0 0 0 0 0 2 4 7 8 8 6 6 6 8 10 10 9 6 4 2 1 1 2 2 2 1 0 1 3 3 4 5 6 6 6 7 7 7 6
2 2 2 1 1 1 0 1 2 3 4 6 9 9 7 5 4 5 6 8 8 6 4 3 2 1 1 1 1 1 0 0 1 3 3 3 4 5 6 6 7 7 7 7
1 1 1 1 0 0 0 1 4 6 6 7 9 8 5 3 2 2 4 6 5 4 3 2 1 1 0 0 0 0 0 1 2 3 3 3 3 4 5 6 5 5 6 6
0 0 0 0 0 0 1 3 5 7 7 7 7 6 5 3 2 2 4 5 4 3 2 1 0 0 0 0 0 0 0 1 2 2 3 4 3 4 5 5 5 3 3 3
0 0 0 0 0 1 2 4 5 6 6 6 5 4 4 3 3 3 5 6 5 4 3 1 1 0 0 0 0 0 1 2 3 4 4 5 4 4 5 6 6 4 2 1
0 0 0 0 1 2 4 5 6 6 6 5 4 3 3 3 3 4 5 6 6 6 4 2 1 0 0 0 0 0 1 2 4 5 6 6 6 6 6 6 6 6 4 2
0 0 0 0 1 2 3 5 6 6 5 4 3 3 3 3 3 3 4 5 6 5 4 2 1 0 0 0 0 0 1 1 3 5 6 6 6 6 6 6 6 7 6 5
1 1 1 0 0 1 1 2 4 4 3 3 3 3 3 3 2 1 2 3 3 3 3 2 0 0 0 0 0 0 0 0 1 4 6 6 6 6 6 6 7 7 7 7
2 2 2 1 1 0 0 0 1 2 2 1 1 2 2 2 1 1 1 1 1 1 1 1 0 0 0 0 0 0 0 0 1 3 5 6 6 6 5 6 8 8 7 7
1 1 2 2 2 1 0 0 0 1 2 1 0 1 1 1 1 0 0 0 0 0 0 0 0 0 0 0 0 0 0 0 0 1 4 5 6 6 6 7 9 9 8 7
0 0 1 1 2 1 0 0 0 1 2 1 0 0 0 0 0 0 0 0 0 0 0 0 0 0 0 0 0 0 0 0 0 1 2 4 4 5 6 7 9 10 9 9
0 0 0 0 1 1 0 0 0 0 1 1 0 0 0 0 0 0 0 0 0 0 0 0 0 0 0 0 0 0 0 0 0 0 1 2 3 4 5 7 9 9 9 9
0 0 0 0 0 0 0 0 0 0 1 0 0 0 0 0 0 0 0 0 0 0 0 0 0 0 0 0 0 0 0 0 0 0 0 1 2 3 4 6 7 7 7 7
0 0 0 0 0 1 1 1 0 0 0 0 0 0 0 0 0 0 0 0 0 0 0 0 0 0 0 0 0 0 0 0 0 0 0 1 2 3 4 5 6 6 6 6
0 0 0 0 0 1 2 1 0 0 0 0 0 0 0 0 0 0 0 0 0 0 0 0 0 0 0 0 0 0 0 0 0 0 0 1 2 3 3 4 5 6 6 6
0 0 0 0 0 1 1 1 0 0 0 0 0 0 0 0 0 0 0 0 0 0 0 0 0 0 0 0 0 0 0 0 0 0 0 1 2 3 3 3 4 5 4 4
0 0 0 0 0 0 0 0 0 0 0 0 0 0 0 0 0 0 0 0 0 0 0 0 0 0 0 0 0 0 0 0 0 0 0 0 1 1 2 2 3 3 3 2
0 0 0 0 0 0 0 0 0 0 0 0 0 0 0 0 0 0 0 0 0 0 0 0 0 0 0 0 0 0 0 0 0 0 0 0 0 0 1 1 2 3 2 1
Wind_Speed
4 3 3 3 3 4 5 7 7 7 7 8 5 4 3 2 3 4 3 4 4 4 3 4 4 4 4 4 3 3 3 3 3 2 2 3 3 3 3 3 3 2 2 2
1 1 2 1 2 3 4 4 4 3 6 5 2 2 2 3 4 4 5 5 4 3 3 4 4 5 4 3 3 3 4 3 2 2 2 2 3 3 3 2 2 2 2 2
2 2 2 2 4 4 3 2 4 5 6 1 2 4 4 4 4 4 4 5 5 5 5 5 5 5 5 4 4 4 3 2 2 2 3 2 3 3 3 3 3 3 3 3
2 2 3 6 2 2 3 0 1 2 2 2 2 1 0 1 3 3 4 4 4 4 4 3 3 3 3 4 4 3 3 2 2 2 2 2 2 3 4 3 3 3 3 4
4 3 3 4 1 1 2 1 1 1 0 2 3 3 3 1 1 2 3 3 3 3 3 3 3 4 4 4 3 3 2 2 2 3 2 2 3 4 3 3 3 3 3 3
4 4 5 5 3 1 3 2 2 2 3 3 4 1 3 1 1 0 0 1 2 2 3 3 3 4 4 4 3 3 3 3 2 3 3 3 3 3 3 3 3 3 3 3
4 3 5 4 4 1 3 6 2 3 3 4 3 4 2 1 0 1 2 2 3 3 2 2 3 4 4 3 4 3 2 2 2 2 2 2 2 2 2 2 2 2 3 3
4 3 5 4 2 3 4 1 1 1 2 3 2 1 1 1 0 1 2 2 3 3 2 2 3 4 3 3 3 1 2 2 2 2 2 1 1 1 1 2 2 2 3 3
6 5 4 3 2 2 2 1 1 1 2 4 3 2 1 1 1 0 1 2 2 3 2 1 2 3 4 3 2 1 1 1 2 1 1 1 2 2 1 2 2 2 3 3
0 2 3 3 2 1 0 1 1 2 2 3 3 2 1 0 1 1 0 1 1 2 2 1 1 2 3 2 2 2 2 2 2 1 1 1 2 2 2 3 3 3 3 4
1 2 2 4 2 1 1 2 1 1 1 2 3 2 1 1 1 0 0 0 1 1 2 2 1 2 2 2 3 2 2 2 2 2 2 2 2 2 3 4 5 4 4 4
5 5 4 4 4 2 1 0 1 1 1 1 2 2 1 1 1 0 0 0 0 0 1 1 1 2 1 2 3 3 3 3 2 2 2 2 2 2 4 5 5 5 6 5
4 3 3 4 3 2 1 1 0 1 2 1 1 2 2 1 0 0 0 0 1 1 0 1 1 2 2 2 2 3 3 3 2 2 2 2 2 2 3 3 3 4 5 5
2 1 1 2 3 2 0 0 1 2 1 1 1 1 2 1 1 0 1 1 1 1 0 1 1 2 2 2 2 2 2 3 3 2 2 2 2 2 2 2 3 3 3 4
2 1 2 1 1 1 1 1 2 1 1 1 1 1 2 1 1 1 1 0 0 0 1 1 1 3 2 1 1 2 2 2 2 2 2 2 2 2 2 3 3 3 2 2
2 2 1 1 0 1 1 1 1 1 0 0 1 1 1 1 1 1 0 0 1 1 2 2 3 3 1 1 1 1 1 2 2 2 2 2 2 3 3 3 3 3 3 2
2 1 1 0 1 1 1 1 1 1 1 1 1 1 1 1 0 1 1 1 1 2 2 2 3 3 2 1 1 1 1 1 2 2 2 2 2 3 3 3 3 3 4 3
2 1 1 2 1 1 1 1 1 0 1 1 0 0 1 1 1 2 2 2 2 2 3 3 3 3 2 2 2 2 1 2 2 2 2 2 3 3 3 3 4 4 3 3
1 1 0 0 0 0 0 0 1 1 0 0 1 0 1 1 2 2 1 1 2 3 5 4 3 2 2 2 2 1 1 1 2 2 2 2 2 2 3 3 3 3 3 2
2 1 1 1 2 1 1 1 1 0 0 1 1 0 1 2 2 2 1 2 3 4 4 3 2 2 2 2 2 1 1 2 2 2 2 2 2 2 3 3 3 3 3 2
1 1 2 2 2 2 2 2 1 1 1 1 1 2 2 3 3 2 2 3 5 4 3 2 2 2 2 1 1 1 1 1 2 2 2 2 2 2 3 3 3 2 2 2
1 1 1 1 2 3 3 2 1 1 2 2 1 1 1 2 3 2 3 4 4 3 2 2 2 2 2 1 1 1 1 2 2 2 2 2 2 2 2 3 2 2 2 2
2 2 2 2 2 2 3 2 2 1 2 2 2 2 2 2 2 2 4 3 2 2 2 2 2 2 2 1 1 1 1 2 2 2 2 2 2 2 2 2 2 2 2 2
2 2 2 2 1 1 2 3 2 1 2 2 2 2 2 2 2 3 3 3 3 3 2 2 2 1 1 1 1 1 1 1 1 2 2 2 2 1 1 2 2 2 2 2
2 2 2 2 2 2 2 2 2 2 2 2 2 2 2 1 2 3 2 2 2 2 2 2 2 2 1 1 1 1 1 1 1 1 1 1 1 1 1 1 2 2 2 2
2 2 2 2 2 2 2 1 1 2 1 2 3 3 2 2 2 2 2 2 2 2 1 1 1 1 1 1 1 1 1 1 1 1 1 1 1 2 2 2 2 2 2 1
2 2 2 2 2 1 1 1 1 1 1 1 2 3 2 2 2 2 2 2 1 1 1 1 1 1 1 1 1 1 1 1 1 1 1 1 1 1 2 2 1 1 1 1
Wind_Direction
218 210 181 197 207 185 184 184 189 226 225 242 229 214 200 174 144 140 147 154 160 164 167 157 151 146 149 149 146 148 150 161 182 185 183 165 163 177 174 177 186 185 183 195
275 210 174 204 258 208 212 201 212 231 254 246 191 165 161 169 162 166 168 166 163 163 169 171 166 161 153 149 150 153 162 175 177 163 163 177 177 178 173 175 177 176 196 203
253 293 73 280 249 211 198 198 183 217 244 189 161 183 191 189 179 182 181 175 169 171 185 185 182 170 166 161 155 156 160 166 171 177 188 198 198 180 189 194 184 190 210 212
134 90 205 240 255 173 158 213 225 238 245 187 191 221 298 190 181 180 174 176 178 171 172 170 163 157 155 145 150 157 168 170 168 183 205 203 197 208 207 204 202 207 214 218
123 158 257 289 288 164 159 286 277 187 138 99 93 50 357 345 155 181 185 180 174 158 153 150 147 147 142 147 152 164 187 191 194 195 205 209 215 230 217 204 213 217 217 220
124 148 218 246 291 292 117 283 264 165 172 150 109 95 268 298 94 127 125 139 141 137 137 149 158 151 149 164 171 194 206 205 201 198 202 218 226 238 222 201 211 214 225 227
136 180 253 264 302 64 154 239 238 177 181 166 176 205 225 249 164 180 163 148 142 138 146 166 158 152 163 180 203 205 195 192 195 197 205 221 225 242 219 200 204 213 235 245
140 164 245 308 18 161 212 250 159 152 160 152 153 102 97 70 104 147 146 141 142 139 151 151 155 155 176 220 228 194 180 197 212 217 217 207 205 236 229 197 207 225 240 260
180 203 247 283 247 246 172 168 216 173 165 141 130 130 108 57 1 341 157 150 150 151 149 148 163 164 186 221 198 180 197 229 240 241 224 198 198 207 225 214 210 229 232 246
184 280 288 301 311 338 104 161 190 170 148 135 141 151 134 73 345 356 62 141 141 136 149 183 181 191 191 184 177 179 209 231 237 238 261 253 228 212 211 229 221 224 230 240
232 270 319 328 321 317 66 90 78 83 130 147 144 158 163 175 253 269 341 316 158 165 190 217 210 222 202 174 164 183 217 225 231 231 241 256 257 243 232 236 217 215 229 230
214 220 197 254 278 272 149 154 166 142 98 114 148 168 163 196 248 239 288 6 54 180 221 251 251 258 242 185 171 178 204 220 222 223 235 250 262 291 272 252 244 232 233 231
218 222 208 247 283 274 241 220 186 140 154 162 165 157 155 157 190 103 51 266 217 220 252 277 256 258 257 219 188 187 201 214 218 220 226 239 240 247 281 301 283 260 251 242
218 166 229 266 273 291 272 200 111 88 89 113 134 128 122 108 102 137 238 257 237 195 192 254 264 271 265 230 208 207 208 220 223 220 224 239 244 245 247 263 285 289 277 255
319 201 202 239 321 329 332 106 105 88 83 72 103 123 125 136 189 244 261 266 206 131 254 266 274 281 290 243 211 215 213 218 224 223 220 227 241 248 256 258 264 274 284 296
344 27 76 110 172 311 345 117 137 189 167 120 105 117 142 167 213 268 312 173 168 230 255 256 262 272 275 232 225 242 247 242 247 238 230 222 224 228 234 242 257 267 260 252
89 38 22 15 292 280 275 215 189 185 175 177 185 169 124 103 24 330 304 296 280 272 265 251 257 272 269 241 226 243 255 256 253 247 237 231 228 229 235 239 246 256 261 244
156 199 213 201 214 223 354 7 7 204 195 191 174 136 157 168 229 266 288 323 337 319 288 264 261 273 275 269 251 241 240 246 247 242 238 232 235 235 235 241 248 256 266 253
79 76 60 95 247 143 167 288 312 334 341 116 123 276 278 269 260 273 311 336 306 293 288 279 265 260 269 273 266 240 235 247 260 258 244 240 248 249 243 245 251 256 257 251
23 28 33 10 355 349 325 312 324 350 285 165 159 256 304 303 297 290 283 277 264 259 267 276 278 275 267 265 255 244 242 247 255 260 256 245 247 254 252 253 253 253 252 245
2 4 11 356 336 326 310 300 309 303 290 244 214 235 267 290 288 277 276 285 285 278 271 270 272 271 266 256 238 243 247 253 256 257 255 253 251 258 264 267 264 256 254 256
315 316 325 331 327 319 317 318 300 288 297 289 272 262 278 291 292 287 266 259 277 287 286 281 274 261 254 248 237 240 252 254 256 256 255 254 250 257 266 270 269 271 267 263
302 292 290 290 289 302 323 327 312 297 286 276 264 254 252 260 265 264 280 278 276 285 287 275 264 255 246 250 242 231 238 246 253 255 259 260 258 258 261 267 271 272 273 274
310 307 303 302 307 340 329 319 326 308 294 298 286 265 251 262 288 279 263 272 277 282 287 276 261 247 236 239 234 233 243 251 254 256 262 265 263 259 259 264 271 273 271 273
305 314 323 337 341 317 302 315 339 344 347 343 332 319 305 275 268 288 290 280 271 278 289 288 281 256 225 216 209 217 233 244 251 260 267 266 264 264 268 271 271 273 277 280
310 306 296 282 278 283 298 312 320 324 344 338 329 325 321 323 313 302 297 289 282 269 265 272 273 254 235 227 228 226 230 236 238 240 248 255 266 274 281 287 289 287 287 287
329 325 324 324 317 300 296 309 312 312 313 311 313 315 319 327 330 324 316 310 303 283 271 267 254 236 229 225 231 238 242 244 236 233 237 249 274 285 293 297 299 297 293 293